Regional Weather Roundup
Issued by NWS Northern Indiana

Home | Current Version | Previous Version | Text Only | Print | Product List | Glossary On
Versions: 1 2 3 4 5 6 7 8 9 10 11 12 13 14 15 16 17 18 19 20 21 22 23 24 25 26 27 28 29 30 31 32 33 34 35 36 37 38 39 40 41 42 43 44 45 46 47 48 49 50
000
ASUS43 KIWX 250200
RWRIWX

KIWX WEATHER ROUNDUP
NATIONAL WEATHER SERVICE NORTHERN INDIANA
1000 PM EDT THU JUL 24 2014

NOTE: "FAIR" INDICATES FEW OR NO CLOUDS BELOW 12,000 FEET WITH NO
SIGNIFICANT WEATHER AND/OR OBSTRUCTIONS TO VISIBILITY.

* THESE STATIONS ARE NOT UNDER NWS QUALITY CONTROL. THEY ALSO MAY NOT
  REPORT WEATHER SUCH AS PRECIPITATION OR FOG.

INZ001>027-250300-
NORTHERN INDIANA

CITY           SKY/WX    TMP DP  RH WIND       PRES   REMARKS
GARY*          PTCLDY    59  55  88 CALM      30.10F
VALPARAISO     CLEAR     59  51  75 N3        30.11R
KNOX*          CLEAR     59  54  84 N6        30.09R
SOUTH BEND     CLEAR     60  51  72 NW6       30.10R
GOSHEN         CLEAR     63  55  75 N7        30.08R
MONTICELLO*    MOCLDY    62  58  86 W3        30.08R
WARSAW*        CLEAR     61  54  77 NW3       30.08S
ANGOLA*        CLEAR     61  54  77 CALM      30.08R
FORT WAYNE     MOCLDY    64  57  78 CALM      30.07S
PERU/GRISSOM   CLEAR     66  55  65 NW3       30.07S

$$
INZ028>050-250300-
CENTRAL INDIANA

CITY           SKY/WX    TMP DP  RH WIND       PRES   REMARKS
LAFAYETTE      PTCLDY    62  55  77 N5        30.08R
KOKOMO*        CLEAR     64  55  72 CALM      30.08S
MUNCIE*        CLEAR     61  53  75 SE3       30.08R
INDIANAPOLIS   PTCLDY    69  51  52 N5        30.06S

$$
MIZ043>046-050>051-056>058-064>065-071>073-077>080-250300-
SOUTHWEST LOWER MICHIGAN

CITY           SKY/WX    TMP DP  RH WIND       PRES   REMARKS
BATTLE CREEK   CLEAR     64  53  67 NW7       30.08R
BENTON HARBOR  CLEAR     55  52  89 CALM      30.09S
HOLLAND        CLEAR     58  51  78 CALM      30.09S
GRAND RAPIDS   PTCLDY    66  49  54 W7        30.08R
KALAMAZOO      CLEAR     64  51  62 W6        30.09R

$$
OHZ001>008-015>018-024>025-250300-
NORTHWEST OHIO

CITY           SKY/WX    TMP DP  RH WIND       PRES   REMARKS
DEFIANCE       PTCLDY    62  54  74 N3        30.08R
FINDLAY        CLEAR     64  52  64 SE5       30.08R
TOLEDO EXPRESS MOCLDY    61  54  77 CALM      30.07S
TOLEDO METCALF CLEAR     64  53  67 SE5       30.08R
LIMA           CLEAR     61  53  75 SE6       30.08F

$$
&&


USA.gov is the U.S. government's official web portal to all federal, state and local government web resources and services.